This is the latest recevied weather packets stored in our database for station/object KH6DH-13. If no packets are shown the sender has not sent any weather packets the latest 10 day(s).
| Time | Temp. | Humidity | Pressure | Rain* | Wind** | Luminosity | Snow |
|---|---|---|---|---|---|---|---|
| 1777381389 | 23.33° C | - | - | 0 mm | 0.45 m/s, 35° | - | - |
| 1777380788 | 23.33° C | - | - | 0 mm | 0.89 m/s, 345° | - | - |
| 1777380187 | 22.78° C | - | - | 0 mm | 0.45 m/s, 58° | - | - |
| 1777379582 | 23.33° C | - | - | 0 mm | 0.89 m/s, 17° | - | - |
| 1777378981 | 23.33° C | - | - | 0 mm | 1.34 m/s, 21° | - | - |
| 1777378380 | 23.33° C | - | - | 0 mm | 0.45 m/s, 55° | - | - |
| 1777377779 | 23.33° C | - | - | 0 mm | 1.34 m/s, 18° | - | - |
| 1777377178 | 23.33° C | - | - | 0 mm | 0.89 m/s, 58° | - | - |
| 1777376577 | 23.33° C | - | - | 0 mm | 0 m/s | - | - |
| 1777375976 | 23.89° C | - | - | 0 mm | 0.45 m/s, 94° | - | - |
| 1777375375 | 23.33° C | - | - | 0 mm | 0.45 m/s, 353° | - | - |
| 1777374774 | 23.33° C | - | - | 0 mm | 1.34 m/s, 80° | - | - |
| 1777374173 | 23.89° C | - | - | 0 mm | 0.89 m/s, 156° | - | - |
| 1777373572 | 23.89° C | - | - | 0 mm | 0.89 m/s, 148° | - | - |
| 1777372971 | 23.89° C | - | - | 0 mm | 0 m/s | - | - |
| 1777372370 | 23.89° C | - | - | 0 mm | 0 m/s | - | - |
| 1777371769 | 23.89° C | - | - | 0 mm | 0 m/s | - | - |
| 1777371168 | 23.89° C | - | - | 0 mm | 0 m/s | - | - |
| 1777370567 | 23.89° C | - | - | 0 mm | 0 m/s | - | - |
| 1777369966 | 23.89° C | - | - | 0 mm | 0 m/s | - | - |
| 1777369365 | 24.44° C | - | - | 0 mm | 0.89 m/s, 188° | - | - |
| 1777367410 | 24.44° C | - | - | 0 mm | 0 m/s | - | - |
| 1777366807 | 24.44° C | - | - | 0 mm | 0 m/s | - | - |
| 1777366206 | 24.44° C | - | - | 0 mm | 2.24 m/s, 53° | - | - |
| 1777364956 | 24.44° C | - | - | 0 mm | 1.34 m/s, 79° | - | - |
* Rain latest hour (hover to see other rain measurements)
** Current wind speed in m/s (hover to see current wind gust speed)